Volver al catálogo

FENGYUN 1C DEB

ActivoSSO
NORAD 30671·DEBRIS·🇨🇳 China

Lanzado May 10, 1999 desde Taiyuan Satellite Launch Center

Loading…

Próximos Pases (próximas 24 horas)

TLE

ActualizadoSource: Space-Track

Época: Sep 14, 2026, 11:01 UTC

1 30671U 99025AQD 26257.45908509  .00000856  00000-0  61248-3 0  9997
2 30671  99.2323 328.0942 0124633   2.2353  10.2973 13.96345838990425

Sigue FENGYUN 1C DEB en tiempo real con AllMySat

Download on the App Store